Warning: Javascript must be enabled to use all the features on this page!


Page Loading - Please Wait...

Click to hideNews Bulletins

Peak Streamflow for the Nation

USGS 05270700 MISSISSIPPI RIVER AT ST. CLOUD, MN

Sherburne County, Minnesota
Hydrologic Unit Code 07010203
Latitude  45°32'50", Longitude  94°08'44" NAD27
Drainage area 13,320  square miles
Gage datum 958.49 feet above NGVD29
Output formats
Table
Graph
Tab-separated file
peakfq (watstore) format
Reselect output format
Water
Year
Date Gage
Height
(feet)
Stream-
flow
(cfs)
1989 1989-04-12 7.66 19,3006
1990 1990-03-16 7.27 16,7006
1991 1991-05-09 7.71 19,7006
1992 1992-04-27 6.80 13,7006
1993 1993-07-11 8.08 21,7006
1994 1994-05-02 8.24 23,3006
1995 1995-03-21   19,0001,6
1996 1996-04-22 8.70 27,3006
1997 1997-04-08 11.44 46,9006
1998 1998-06-29 7.27 16,7006
1999 1999-05-17 9.38 33,8006
2000 2000-05-16 6.60 12,5006
2001 2001-04-12 10.99 44,3006
2002 2002-07-12 8.06 22,2006
2003 2003-06-29 7.88 20,9006
2004 2004-06-05 6.09 9,7506
2005 2005-06-14 8.04 22,1006
2006 2006-04-05 7.75 20,0006
2007 2007-04-03 7.13 15,8006
2008 2008-05-02 7.58 18,8006
2009 2009-03-30 9.83 35,7006
2010 2010-03-18 8.95 29,4006
2011 2011-04-13 8.45 25,2006
2012 2012-06-25 9.04 30,2006
2013 2013-06-25 8.43 25,1006
2014 2014-06-19 8.80 28,0006
2015 2015-05-21 8.10 22,5006
2016 2016-07-14 8.48 25,5006
2017 2017-05-05 7.53 18,4006
2018 2017-10-09 8.15 22,9006
2019 2019-03-29 8.762 27,7006
2020 2020-04-07 8.69 27,2006
?
  Peak Gage-Height Qualification Codes.
?
  Peak Streamflow Qualification Codes.